www.pogodaiklimat.ru

Погода и климат >> Архив погоды >> Габон >> Порт-Жантиль


ПОГОДА в Порт-Жантиле

  • Прогноз погоды в Порт-Жантиле
  • Монитор погоды в Порт-Жантиле

АРХИВ ПОГОДЫ в Порт-Жантиле

Время (UTC), дата Ветер
(напр.,м/с)
 
Видим.   Явления Облачность Т
(С)
Тd
(С)
f
(%)
Тe
(С)
Тes
(С)
Комфортность P
(гПа)
Po
(гПа)
Тmin
(С)
Tmax
(С)
R
(мм)
R24
(мм)
S
(см)
06 19.04 штиль 0 8000 м 4/3 240 м
[Cu med, cong Ac trans]
+25.6 +24.9 96 +36 +37 очень
душно
1011.0 1010.1 +25.4
09 19.04 Ю 4 10 км 5/5 330 м
[Cu med, cong]
+29.2 +25.2 79 +42 +47 опасность
перегрева
1012.1 1011.2
18 19.04 Ю 4 7000 м гроза, ливневой дождь 10/3 240 м
[Cb cap As op]
+27.1 +26.1 94 +41 +41 опасность
перегрева
1009.6 1008.7 +31.4 13
06 20.04 С 2 4000 м гроза, ливневой дождь 10/10 240 м
[Cb cap]
+24.5 +23.8 96 +33 +33 очень
душно
1012.3 1011.4 +23.5 61
15 20.04 Ю 1 10 км 10/3 300 м
[Cb cap As trans]
+28.5 +24.5 79 +40 +43 очень
душно
1008.7 1007.8
18 20.04 Ю 2 10 км 9/3 300 м
[Cb cap As trans]
+27.6 +23.5 78 +37 +37 очень
душно
1009.4 1008.5 +28.9 0.5
09 21.04 В 2 15 км 8/8 330 м
[Cu Sc]
+29.2 +25.5 80 +43 +45 опасность
перегрева
1012.7 1011.8
12 21.04 Ю 4 7000 м слаб. дождь 8/8 300 м
[Cb cap]
+28.2 +26.6 91 +44 +46 опасность
перегрева
1010.8 1009.9 8
15 21.04 Ю 5 10 км {дождь} 6/5 330 м
[Cb cap Ac trans]
+29.8 +25.3 77 +44 +45 опасность
перегрева
1008.5 1007.6
18 21.04 Ю 2 8000 м гроза, ливневой дождь 9/9 240 м
[Cb cap]
+24.8 +22.8 89 +33 +33 очень
душно
1009.1 1008.2 +30.4 12
00 22.04 В 1 10 км {гроза, дождь} 8/1 240 м
[Sc Ac trans]
+25.4 +23.6 90 +35 +35 очень
душно
1010.1 1009.2 0.2
03 22.04 В 2 10 км 6/1 240 м
[Sc Ac trans]
+25.1 +23.8 93 +34 +34 очень
душно
1008.9 1008.0
06 22.04 ЮВ 2 10 км 9/9 240 м
[Cu Sc]
+25.1 +23.5 91 +34 +34 очень
душно
1010.8 1009.9 +24.8 13
09 22.04 В 3 10 км 8/8 300 м
[Cu Sc]
+29.5 +25.7 80 +44 +46 опасность
перегрева
1012.3 1011.4
12 22.04 Ю 4 10 км 5/3 330 м
[Cu med, cong Ci sp]
+30.7 +25.7 75 +46 +54 опасность
перегрева
1010.6 1009.7
15 22.04 ЮЗ 5 10 км 6/4 330 м
[Cb cap Ci fib]
+30.5 +26.4 79 +47 +49 опасность
перегрева
1008.6 1007.7
21 22.04 Ю 2 10 км 3/3 240 м
[Sc]
+28.5 +24.7 80 +41 +41 опасность
перегрева
1009.7 1008.8
00 23.04 Ю 3 10 км 4/4 240 м
[Sc]
+28.0 +25.5 86 +41 +41 опасность
перегрева
1009.0 1008.1
06 23.04 штиль 0 10 км 5/5 240 м
[Cu Sc Ci fib]
+26.2 +25.2 94 +38 +38 очень
душно
1010.4 1009.5 +26.1
09 23.04 Ю 3 10 км 5/5 300 м
[Cu med, cong Ci fib]
+29.2 +25.5 80 +43 +48 опасность
перегрева
1012.1 1011.2
12 23.04 Ю 5 10 км 4/4 300 м
[Cu med, cong]
+30.6 +25.7 75 +45 +51 опасность
перегрева
1011.0 1010.1
18 24.04 Ю 2 10 км гроза без осадков 9/9 300 м
[Cb cap]
+27.4 +24.6 85 +39 +39 очень
душно
1010.8 1009.9 +31.2 0.8
09 25.04 Ю 6 10 км 5/4 300 м
[Cu med, cong Ci sp]
+30.0 +26.3 81 +46 +49 опасность
перегрева
1014.2 1013.3
12 25.04 Ю 5 10 км гроза без осадков 9/9 240 м
[Cb cap]
+29.7 +26.0 81 +45 +46 опасность
перегрева
1012.6 1011.7
15 25.04 Ю 5 7000 м гроза без осадков 9/9 240 м
[Cb cap]
+28.5 +26.4 88 +43 +44 опасность
перегрева
1010.0 1009.1
18 25.04 Ю 4 10 км сильная метель 9/9 240 м
[]
+28.0 +25.9 88 +42 +42 опасность
перегрева
1010.6 1009.7 +30.6

 

Местоположение метеостанции Порт-Жантиль (Габон): широта -0.70 долгота 8.75 высота над уровнем моря 4 м.

В архиве по умолчанию представлена погода в Порт-Жантиле за последнюю неделю. Архивные данные за месяц целиком и за предыдущие месяцы, начиная с января 2011 года, Вы можете получить, выбрав интересующий диапазон дат из раскрывающегося списка и нажав кнопку "Ввод!".


*Определитесь, кто Вы:
робот инопланетянин человек

Внимание! Время в таблицах - всемирное. Для получения местного времени необходимо прибавить поправку, которая равна 1 ч.

Смотрите также архив погоды в соседних городах и на ближайших метеорологических станциях:

Погода в Либревиле (Габон) (148 км)
Погода в Ламбарене (Габон) (167 км)
Погода в Муиле (Габон) (284 км)
Погода в Бате (Экваториальная Гвинея) (313 км)
Погода в Чибанге (Габон) (348 км)
Погода в Оеме (Габон) (403 км)
Погода в Битаме (Габон) (433 км)
Погода в Ластурвиле (Габон) (442 км)
Погода в Макоку (Габон) (480 км)
Погода в Малабо (Экваториальная Гвинея) (496 км)

Пояснения к столбцам:

Ветер - указаны скорость ветра в м/с - средняя за 10 мин, порывы в срок и между сроками (в фигурных скобках) и направление, откуда дует ветер: С - северный, СВ - северо-восточный, В - восточный, ЮВ - юго-восточный, Ю - южный, ЮЗ - юго-западный, З - западный, СЗ - северо-западный.
Видимость - горизонтальная дальность видимости в метрах или километрах. При видимости от 1 до 10 км при отсутствии осадков обычно наблюдается дымка, при ухудшении видимости до 1 км и менее - туман. В сухую погоду видимость может ухудшаться дымом, пылью или мглою.
Явления - указаны атмосферные явления, наблюдавшиеся в срок или в последний час перед сроком; фигурными скобками обозначены явления, наблюдавшиеся между сроками (за 1-3 часа до срока); квадратными скобками обозначены град или гололедные отложения с указанием их диаметра в мм.
Облачность - указаны через наклонную черту общая и нижняя облачность в баллах и высота нижней границы облаков в метрах; квадратными скобками обозначены формы облаков: Ci - перистые, Cs - перисто-слоистые, Cc - перисто-кучевые, Ac - высококучевые, As - высокослоистые, Sc - слоисто-кучевые, Ns - слоисто-дождевые, Cu - кучевые, Cb - кучево-дождевые. Подробнее классификацию облаков см. в Атласе облаков (PDF).
T - Температура воздуха - температура, измеренная на высоте 2 м над землей.
Td - Температура точки росы - температура, при понижении до которой содержащийся в воздухе водяной пар достигнет насыщения.
f - Относительная влажность воздуха - влажноcть воздуха, измеренная на высоте 2 м над землей.
Te - Эффективная температура - температура, которую ощущает одетый по сезону человек в тени. Характеристика душности погоды. При расчете учитывается влияние влажности воздуха и скорости ветра на теплоощущения человека.
Tes - Эффективная температура на солнце - температура, которую ощущает человек, с поправкой на солнечный нагрев. Характеристика знойности погоды. Зависит от высоты солнца над горизонтом, облачности и скорости ветра. Ночью, в пасмурную погоду, а также при ветре 12 м/с и более поправка равна нулю.
P - Атмосферное давление - приведенное к уровню моря атмосферное давление.
Po - Атмосферное давление - измеренное на уровне метеостанции атмосферное давление.
Tmin - Минимальная температура - минимум температуры воздуха на высоте 2 м над землей.
Tmax - Максимальная температура - максимум температуры воздуха на высоте 2 м над землей.
R - Количество осадков - Количество выпавших осадков за период времени, мм. При наведении курсора мыши на число - период времени, за который выпало указанное количество осадков.
R24 - Количество осадков - Количество выпавших осадков за 24 часа, мм.
S - Снежный покров - Высота снежного покрова, см. При наведении курсора мыши на число - состояние снежного покрова и степень покрытия местности в баллах.